Regional Weather Roundup
Issued by NWS

Home | Current Version | Previous Version | Text Only | Print | Product List | Glossary On
Versions: 1 2 3 4 5 6 7 8 9 10 11 12 13 14 15 16 17 18 19 20 21 22 23 24 25 26 27 28 29 30 31 32 33 34 35 36 37 38 39 40 41 42 43 44 45 46 47 48 49 50
000
ASUS45 KCYS 230810
RWRWY

WYOMING REGIONAL WEATHER ROUNDUP
NATIONAL WEATHER SERVICE CHEYENNE WY
200 AM MDT TUE SEP 23 2014

NOTE:  "FAIR" INDICATES FEW OR NO CLOUDS BELOW 12,000 FEET
WITH NO SIGNIFICANT WEATHER AND/OR OBSTRUCTIONS TO VISIBILITY.

WYZ001-230900-
YELLOWSTONE NATIONAL PARK

CITY           SKY/WX    TMP DP  RH WIND       PRES   REMARKS
LK YELLOWSTONE   N/A     47  45  93 CALM      30.30R
W YELLOWSTONE  NOT AVBL

$$
WYZ002>013-054>058-071-098>099-230900-
NORTHERN WYOMING

CITY           SKY/WX    TMP DP  RH WIND       PRES   REMARKS
JACKSON        CLOUDY    50  48  93 SE5       30.23S
CODY           CLEAR     63  45  51 W10G16    30.06R
GREYBULL       CLEAR     57  46  66 SE6       29.99S
WORLAND        PTCLDY    52  44  74 S3        30.02R
SHERIDAN       PTCLDY    53  45  74 SW7       29.97R
BUFFALO        PTCLDY    58  41  53 W7        30.02S
GILLETTE       MOCLDY    56  49  77 S6        29.97R
HULETT         CLOUDY    61  54  77 MISG      30.00
NEWCASTLE      FAIR      54  46  76 MISG      29.99

$$
WYZ014>020-022>026-101>103-230900-
CENTRAL WYOMING

CITY           SKY/WX    TMP DP  RH WIND       PRES   REMARKS
BIG PINEY      CLEAR     42  40  92 NW5       30.27R
PINEDALE       SUNNY     43  43 100 W3        30.27S
DUBOIS         CLOUDY    48  41  76 NW9       30.22R
LANDER         CLEAR     51  40  65 N5        30.10S
RIVERTON       CLEAR     58  41  53 W17       30.10S
CASPER         PTCLDY    58  41  53 SW8       30.08R
DOUGLAS        PTCLDY    53  43  68 NW3       30.06R

$$
WYZ021-027>030-104>119-230900-
SOUTHERN WYOMING

CITY           SKY/WX    TMP DP  RH WIND       PRES   REMARKS
EVANSTON       CLOUDY    53  44  71 SW6       30.28R
KEMMERER       MOSUNNY   43  41  93 NW3       30.28S
FORT BRIDGER   CLOUDY    56  48  75 W7        30.30R
ROCK SPRINGS   CLEAR     50  43  77 S3        30.25R
DIXON          CLOUDY    54  49  85 N6        30.27S
RAWLINS        CLEAR     51  43  74 SW13      30.22R
SARATOGA       CLOUDY    48  45  87 CALM      30.26S
LARAMIE        CLEAR     49  43  80 W12       30.21R
CHEYENNE       MOCLDY    57  43  59 W14       30.15R
TORRINGTON     CLEAR     52  49  89 CALM      30.01R
PINE BLUFFS    FAIR      54  50  87 S7        30.10F

$$



USA.gov is the U.S. government's official web portal to all federal, state and local government web resources and services.